Location: Fairhaven
(34.9340°N, 89.7987°W)
Time: 01:02:26
(UTC+00:00)

Cosmos 2263 Rocket - Pass Details

Date: 13 February 2026
Orbit: 821 x 848 km, 71.0° (Epoch: 7 March)

Event Time Altitude Azimuth Distance (km) Brightness Sun altitude
Rises 12:03:19 0° 331° (NNW) 3,407 5.0 -9.6°
Reaches altitude 10° 12:05:51 10° 325° (NW) 2,465 4.2 -9.1°
Maximum altitude 12:11:12 45° 255° (WSW) 1,130 2.5 -8.0°
Drops below altitude 10° 12:16:29 10° 184° (S) 2,434 4.7 -6.9°
Sets 12:19:00 0° 178° (S) 3,360 5.5 -6.4°
